Regional Weather Roundup
Issued by NWS Cleveland, OH

Home | Current Version | Previous Version | Text Only | Print | Product List | Glossary Off
Versions: 1 2 3 4 5 6 7 8 9 10 11 12 13 14 15 16 17 18 19 20 21 22 23 24 25 26 27 28 29 30 31 32 33 34 35 36 37 38 39 40 41 42 43 44 45 46 47 48 49 50

000
ASUS41 KCLE 290410
RWRCLE
OHIO REGIONAL WEATHER ROUNDUP
NATIONAL WEATHER SERVICE CLEVELAND, OH
1100 PM EST WED JAN 28 2015

NOTE: "FAIR" INDICATES FEW OR NO CLOUDS BELOW 12,000 FEET WITH NO
SIGNIFICANT WEATHER AND/OR OBSTRUCTIONS TO VISIBILITY.

OHZ001>008-015>018-024>027-034-035-043-044-290500-
   NORTHWEST OHIO

CITY           SKY/WX    TMP DP  RH WIND       PRES   REMARKS
DEFIANCE       CLOUDY    25  16  68 SE9       30.09F WCI  15
FINDLAY        MOCLDY    25  14  63 SE14      30.12F WCI  13
TOLEDO EXPRESS MOCLDY    22  14  71 VRB7      30.12F WCI  13
TOLEDO EXEC    MOCLDY    23  12  62 SE12      30.15F WCI  12
LIMA           CLOUDY    28  17  63 S20       30.10F WCI  15
$$

OHZ009>014-019>023-028>033-038-089-290500-
   NORTHEAST OHIO

CITY           SKY/WX    TMP DP  RH WIND       PRES   REMARKS
CLE-HOPKINS    CLOUDY    25  11  55 S14       30.24F WCI  13
CLE-LAKEFRONT  CLOUDY    26   9  48 S12       30.22F WCI  16
CUY CO. ARPT   MOCLDY    27  12  54 S8        30.22F WCI  18
LORAIN-ELYRIA  CLOUDY    23  11  60 S15       30.21F WCI  10
ASHTABULA      MOCLDY    20   4  50 S13       30.24F WCI   7
AKRON-CANTON   CLOUDY    23  11  60 S12       30.23F WCI  12
WOOSTER        CLOUDY    22  11  62 S10       30.23F WCI  11
MANSFIELD      MOCLDY    23  13  65 S17       30.17F WCI   9
YOUNGSTOWN     CLOUDY    20   7  57 SE8       30.23F WCI  10
$$

OHZ042-051>053-060>062-070>072-077>081-290500-
  SOUTHWEST OHIO

CITY           SKY/WX    TMP DP  RH WIND       PRES   REMARKS
CINC-COVINGTON CLOUDY    32  19  58 SE13      30.14F WCI  22
CINC-LUNKEN    CLOUDY    31  19  61 SE9       30.18F WCI  23
HAMILTON       CLOUDY    31  20  63 SE3       30.16F
DAYTON         CLOUDY    28  19  69 SE15      30.12F WCI  16
WRIGHT-PAT AFB CLOUDY    28  19  68 SE9       30.15F WCI  19
DAYTON GENERAL CLOUDY    30  19  63 SE12      30.13F WCI  20
WILMINGTON     CLOUDY    28  18  66 SE10      30.15F WCI  19
$$

OHZ036-037-039>041-045>050-054>059-063>069-073>076-082>088-290500-
  CENTRAL AND SOUTHEAST OHIO

CITY           SKY/WX    TMP DP  RH WIND       PRES   REMARKS
COLUMBUS       MOCLDY    25  14  63 SE10      30.21F WCI  15
OSU AIRPORT    MOCLDY    27  15  61 SE9       30.20F WCI  18
BOLTON FIELD   MOCLDY    24  17  73 SE6       30.21S WCI  17
RICKENBACK AFB MOCLDY    26  17  69 SE7       30.21F WCI  18
NEWARK         MOCLDY    20  12  71 CALM      30.23F
MARION         MOCLDY    24  13  62 S15       30.18F WCI  11
LANCASTER      MOCLDY    27  15  61 S10       30.23F WCI  17
ZANESVILLE     MOCLDY    22  12  65 SE5       30.26F WCI  16
NEW PHILLY     MOCLDY    22  11  62 SE6       30.27F WCI  14
$$



USA.gov is the U.S. government's official web portal to all federal, state and local government web resources and services.